[[{"header":{"parameterUnit":"m.s-1","parameterCategory":1,"la1":30.2991,"la2":30.254,"lo1":-89.0895,"lo2":-89.0444,"dy":0.0017,"dx":0.0017,"nx":28,"ny":28,"refTime":"2024-06-04T21:00:00:Z","depth":0,"parameterNumber":2,"parameterNumberName":"U-component_of_WINDS"},"data":[0,0,0,0,0,0,0,0,0,0,0,0,0,0,0,0,0,0,0,0,0,0,0,0,0,0,0,0,0,0,0,0,0,0,0,0,0,0,0,0,0,0,0,0,0,0,0,0,0,0,0,0,0,0,0,0,0,0,2.4199,2.42,0,2.4216,2.4216,2.4216,2.4195,2.4194,2.4193,2.4193,2.4211,2.4212,2.4214,0,0,0,0,0,0,0,0,0,0,0,0,0,2.4153,2.4154,2.4199,2.42,2.42,2.4216,2.4216,2.4216,2.4195,2.4194,2.4193,2.4192,2.4211,2.4212,2.4214,0,0,0,0,0,0,0,0,0,0,0,0,0,2.4172,2.4155,2.4199,2.4191,2.4191,2.4216,2.4216,2.4216,2.4195,2.4194,2.4193,2.4192,2.421,2.4212,2.4214,2.4249,0,0,2.422,2.422,0,0,0,0,0,0,0,0,2.4171,2.4174,2.4192,2.4192,2.4191,2.4202,2.4207,2.4227,2.4196,2.4194,2.4193,2.4191,2.4209,2.4211,2.4217,2.4249,2.425,2.422,2.4221,2.4222,2.4222,0,0,0,0,0,0,0,2.417,2.4173,2.4206,2.4193,2.4192,2.4188,2.4189,2.421,2.4208,2.4194,2.4192,2.4194,2.4209,2.4215,2.4217,2.425,2.422,2.4221,2.4222,2.4223,2.4316,2.4317,0,0,0,0,0,0,2.4169,2.4172,2.4205,2.4206,2.4178,2.419,2.4191,2.42,2.4208,2.4208,2.4195,2.4193,2.4213,2.4215,2.4218,2.4261,2.4222,2.4223,2.4224,2.4315,2.4316,2.4318,0,0,0,0,0,0,2.4168,2.4172,2.4205,2.4189,2.4193,2.4192,2.4202,2.4201,2.4207,2.4209,2.4208,2.4202,2.4212,2.4215,2.4242,2.4261,2.4224,2.4226,2.4313,2.4315,2.4317,2.4347,0,0,0,0,0,0,2.4167,2.4172,2.4184,2.4189,2.4194,2.4228,2.4203,2.4202,2.421,2.4208,2.4215,2.4215,2.4211,2.4239,2.4244,2.4263,2.4227,2.4311,2.4314,2.4317,2.4344,2.435,2.4354,0,0,0,0,0,2.4165,2.4191,2.4185,2.4189,2.4209,2.4229,2.4231,2.4226,2.4212,2.4225,2.4226,2.4215,2.4258,2.4242,2.4247,2.4267,2.431,2.4313,2.4316,2.4342,2.4348,2.4354,0,0,0,0,0,0,2.4188,2.4192,2.4184,2.4213,2.4221,2.4225,2.4241,2.4232,2.4245,2.4242,2.4235,2.4237,2.4266,2.4269,2.4251,2.4303,2.4282,2.4286,2.43,2.4306,2.4311,2.431,2.4229,0,0,0,0,0,2.4197,2.4212,2.4214,2.4239,2.4243,2.4242,2.425,2.4245,2.4253,2.4257,2.426,2.4269,2.4285,2.4296,2.431,2.4344,2.4347,2.4361,2.4366,2.437,2.4375,2.4396,2.4403,2.4328,2.4328,2.4328,0,0,2.4214,2.4218,2.4228,2.4244,2.4249,2.4267,2.4245,2.4263,2.4276,2.426,2.4286,2.4289,2.4298,2.433,2.4344,2.4333,2.4396,2.4374,2.4378,2.438,2.44,2.4407,2.4413,2.433,2.433,2.433,0,0,2.4255,2.4258,2.4281,2.4287,2.4296,2.4295,2.4301,2.4307,2.4309,2.4334,2.4323,2.434,2.4366,2.4375,2.4382,2.443,2.4421,2.4435,2.4462,2.4483,2.4489,2.4494,2.4513,2.452,2.4439,2.4439,2.4439,0,2.4276,2.43,2.4293,2.4314,2.4322,2.4308,2.4332,2.4339,2.4352,2.4359,2.4347,2.4383,2.4388,2.4423,2.4435,2.4441,2.4449,2.4434,2.4488,2.4494,2.4498,2.4517,2.4524,2.4441,2.444,2.444,2.444,0,2.4326,2.4344,2.4361,2.4375,2.4386,2.4407,2.4406,2.4418,2.4413,2.4414,2.4442,2.4448,2.4465,2.4473,2.4468,2.4508,2.4502,2.4489,2.4468,2.4508,2.4525,2.4531,2.4443,2.4443,2.4442,2.4442,0,0,2.4381,2.4393,2.4399,2.4407,2.4417,2.4431,2.4453,2.447,2.4481,2.4492,2.4512,2.4537,2.4526,2.4535,2.4531,2.4549,2.459,2.4535,2.4535,2.4547,2.4638,2.4648,2.4656,2.4584,2.4585,2.4586,2.4637,0,2.4424,2.4462,2.4458,2.4495,2.4513,2.4501,2.4521,2.4531,2.4533,2.4549,2.4552,2.4571,2.4554,2.456,2.4577,2.4581,2.4608,2.4577,2.4605,2.4606,2.4603,2.4664,2.4675,2.4723,2.4644,2.4645,2.4646,0,2.4478,2.4491,2.453,2.454,2.4547,2.4565,2.4582,2.4597,2.4609,2.4609,2.4621,2.4615,2.464,2.4618,2.4654,2.4633,2.4644,2.4648,2.465,2.4653,2.4629,2.4671,2.4737,2.4745,2.4656,2.4655,2.4654,0,2.4517,2.4544,2.4572,2.4578,2.459,2.4603,2.4609,2.4619,2.463,2.4645,2.4653,2.4671,2.4681,2.4695,2.4695,2.4679,2.4733,2.471,2.4736,2.4736,2.4748,2.4747,2.4819,2.4753,2.4753,2.4752,2.4752,0,2.4565,2.459,2.4589,2.4606,2.4635,2.4631,2.466,2.4664,2.4674,2.4693,2.4684,2.4703,2.4701,2.472,2.472,2.4751,2.4755,2.4758,2.4758,2.476,2.476,2.4767,2.4765,2.4754,2.4754,2.4754,2.4753,0,2.4613,2.4613,2.4643,2.4652,2.4655,2.4676,2.4685,2.4702,2.4705,2.4729,2.4735,2.4739,2.4762,2.4763,2.4788,2.4789,2.4827,2.4823,2.4823,2.4823,2.4849,2.4847,2.4929,2.4941,2.4866,2.4867,2.4867,0,2.4644,2.4664,2.4676,2.4688,2.4694,2.4714,2.4726,2.4723,2.4736,2.4753,2.4769,2.4791,2.4808,2.4845,2.4851,2.4872,2.4869,2.4896,2.4872,2.4874,2.4871,2.4871,2.4874,2.4901,2.4902,2.4902,2.4903,0,2.4701,2.4701,2.4718,2.4736,2.4751,2.4765,2.4778,2.4789,2.4788,2.4804,2.4827,2.4841,2.4868,2.4891,2.4911,2.4919,2.4912,2.4911,2.4918,2.492,2.4921,2.4923,2.4838,2.4909,2.4908,2.4908,2.4908,2.4907,2.4743,2.4761,2.4772,2.4793,2.4802,2.4816,2.4833,2.4838,2.4857,2.4879,2.4877,2.4903,2.4917,2.4944,2.4954,2.4976,2.4967,2.4977,2.498,2.4982,2.4986,2.4917,2.4979,2.4979,2.4979,2.4979,2.4979,0,2.4801,2.4809,2.4827,2.4846,2.4863,2.4854,2.4869,2.4884,2.4907,2.4921,2.4939,2.4967,2.4989,2.4998,2.5021,2.5037,2.5035,2.5043,2.5043,2.5045,2.4992,2.4984,2.5045,2.5045,2.5045,2.5045,2.5045,2.5045,2.4833,2.4863,2.4865,2.4901,2.4908,2.4934,2.4943,2.4956,2.4967,2.4999,2.5018,2.5023,2.5036,2.506,2.5081,2.5083,2.5093,2.5103,2.5105,2.5055,2.5048,2.5042,2.5035,2.5105,2.5105,2.5156,2.5156,2.5157]},{"header":{"parameterUnit":"m.s-1","parameterCategory":1,"la1":30.2991,"la2":30.254,"lo1":-89.0895,"lo2":-89.0444,"dy":0.0017,"dx":0.0017,"nx":28,"ny":28,"refTime":"2024-06-04T21:00:00:Z","depth":0,"parameterNumber":3,"parameterNumberName":"V-component_of_WINDS"},"data":[0,0,0,0,0,0,0,0,0,0,0,0,0,0,0,0,0,0,0,0,0,0,0,0,0,0,0,0,0,0,0,0,0,0,0,0,0,0,0,0,0,0,0,0,0,0,0,0,0,0,0,0,0,0,0,0,0,0,1.2265,1.2268,0,1.2573,1.2576,1.258,1.2644,1.2642,1.2639,1.2637,1.2958,1.2968,1.2979,0,0,0,0,0,0,0,0,0,0,0,0,0,1.1735,1.1744,1.2265,1.2269,1.2272,1.2572,1.2576,1.258,1.2644,1.2642,1.2639,1.2636,1.2954,1.2967,1.298,0,0,0,0,0,0,0,0,0,0,0,0,0,1.1996,1.1747,1.2264,1.234,1.235,1.2571,1.2576,1.2582,1.2645,1.2641,1.2638,1.2635,1.295,1.2965,1.2981,1.315,0,0,1.303,1.3037,0,0,0,0,0,0,0,0,1.1981,1.2015,1.2325,1.2335,1.2347,1.2566,1.2507,1.2772,1.2646,1.2533,1.2637,1.2633,1.2831,1.2856,1.2922,1.3165,1.3178,1.3032,1.3041,1.3048,1.3053,0,0,0,0,0,0,0,1.1963,1.2003,1.2387,1.233,1.2343,1.236,1.2393,1.2557,1.2698,1.2543,1.2548,1.2583,1.2836,1.2906,1.293,1.3183,1.3031,1.3045,1.3055,1.3062,1.3575,1.3579,0,0,0,0,0,0,1.1931,1.1987,1.2377,1.2396,1.2152,1.2372,1.2409,1.2499,1.2696,1.2723,1.2586,1.2585,1.288,1.2911,1.2941,1.3149,1.3048,1.3063,1.3072,1.3571,1.3576,1.3581,0,0,0,0,0,0,1.1919,1.1965,1.2365,1.2193,1.2245,1.2385,1.2486,1.2507,1.2578,1.2729,1.2754,1.2632,1.2879,1.2919,1.3096,1.3161,1.307,1.3085,1.3567,1.3573,1.3578,1.3567,0,0,0,0,0,0,1.1904,1.196,1.2026,1.2194,1.2254,1.2514,1.249,1.2516,1.2604,1.2606,1.2779,1.2804,1.2879,1.3072,1.3112,1.3181,1.3098,1.3562,1.3569,1.3577,1.3562,1.3572,1.358,0,0,0,0,0,1.1885,1.2013,1.2029,1.2076,1.2339,1.2518,1.2552,1.2635,1.2609,1.2676,1.2772,1.2798,1.3147,1.3089,1.3135,1.321,1.3558,1.3567,1.3576,1.3558,1.357,1.358,0,0,0,0,0,0,1.1852,1.2036,1.2057,1.2242,1.2363,1.2528,1.2615,1.2645,1.2778,1.2774,1.2872,1.291,1.3081,1.3164,1.3096,1.3381,1.3351,1.337,1.3322,1.3334,1.3343,1.332,1.3111,0,0,0,0,0,1.1866,1.1994,1.2149,1.2298,1.2357,1.2475,1.2557,1.2609,1.2739,1.2792,1.2901,1.3027,1.3165,1.3254,1.339,1.3573,1.3611,1.3647,1.3656,1.3663,1.3678,1.3778,1.3796,1.361,1.361,1.361,0,0,1.1897,1.2013,1.209,1.2294,1.2395,1.2526,1.2519,1.2659,1.2757,1.2814,1.2987,1.3071,1.3218,1.3398,1.3483,1.3472,1.3737,1.3674,1.3678,1.3691,1.3789,1.3807,1.3822,1.3617,1.3615,1.3614,0,0,1.2021,1.2122,1.2256,1.2355,1.2505,1.2581,1.2613,1.2772,1.283,1.3004,1.3048,1.3166,1.3402,1.3504,1.3587,1.3742,1.377,1.3784,1.3831,1.3927,1.3942,1.3955,1.4009,1.4028,1.3798,1.3798,1.3798,0,1.2042,1.224,1.2322,1.2459,1.2546,1.2599,1.2735,1.2828,1.3015,1.3074,1.3058,1.3352,1.3456,1.3658,1.3695,1.3761,1.38,1.3766,1.3933,1.3947,1.3961,1.4014,1.4034,1.3799,1.3799,1.3799,1.3799,0,1.2257,1.2393,1.2483,1.2659,1.2757,1.2893,1.2994,1.3084,1.3126,1.3204,1.3379,1.3504,1.3663,1.3715,1.376,1.3924,1.3912,1.3913,1.3885,1.3978,1.4029,1.405,1.38,1.3799,1.3799,1.3799,0,0,1.2373,1.2587,1.2619,1.2697,1.2864,1.2972,1.3108,1.3261,1.3335,1.3461,1.3578,1.3773,1.3774,1.3867,1.3923,1.4008,1.412,1.3999,1.4004,1.4016,1.4305,1.4303,1.4325,1.4138,1.4142,1.4146,1.4292,0,1.2516,1.276,1.2835,1.304,1.3166,1.3215,1.3334,1.3448,1.3524,1.3642,1.3726,1.3861,1.3853,1.3909,1.3995,1.4088,1.4179,1.4078,1.4248,1.4253,1.4209,1.4352,1.4352,1.4484,1.4313,1.4317,1.4319,0,1.2717,1.2842,1.3058,1.3204,1.326,1.3366,1.351,1.3622,1.3752,1.3801,1.3902,1.3949,1.4093,1.4054,1.4252,1.4182,1.4255,1.431,1.4318,1.4337,1.4292,1.4375,1.4529,1.4548,1.4352,1.4349,1.4347,0,1.2778,1.3001,1.3158,1.3224,1.3399,1.3471,1.3548,1.3674,1.376,1.3886,1.3942,1.4084,1.4162,1.427,1.4354,1.4318,1.4544,1.4513,1.4588,1.4586,1.4635,1.4631,1.4802,1.4682,1.4681,1.4681,1.4681,0,1.293,1.306,1.3187,1.3284,1.343,1.3514,1.3656,1.3735,1.3846,1.3959,1.4011,1.4116,1.422,1.4338,1.4404,1.4557,1.4592,1.4635,1.4651,1.4631,1.4625,1.4681,1.4674,1.4686,1.4685,1.4684,1.4683,0,1.3024,1.3114,1.3288,1.3437,1.3478,1.3579,1.3707,1.3803,1.3877,1.4019,1.4057,1.4175,1.4317,1.441,1.4592,1.4636,1.4802,1.4816,1.4757,1.4765,1.4834,1.4826,1.5048,1.508,1.4937,1.4939,1.494,0,1.3115,1.3216,1.3374,1.3452,1.3528,1.3653,1.3739,1.3825,1.3912,1.4065,1.4141,1.4285,1.4405,1.4628,1.4731,1.4869,1.4887,1.4954,1.4908,1.4883,1.4886,1.4879,1.4889,1.4962,1.4963,1.4964,1.4965,0,1.3267,1.3305,1.3427,1.3563,1.3664,1.3776,1.3888,1.3949,1.4053,1.4149,1.4293,1.4385,1.4567,1.4709,1.4855,1.4935,1.4967,1.4978,1.5002,1.4983,1.4944,1.4964,1.4777,1.4973,1.4972,1.4972,1.4971,1.4971,1.3363,1.3453,1.3577,1.3709,1.3801,1.3904,1.3999,1.4084,1.4204,1.4358,1.4401,1.455,1.4674,1.4873,1.4954,1.5071,1.5064,1.51,1.5109,1.5117,1.5116,1.4924,1.5099,1.5098,1.5098,1.5098,1.5098,0,1.3516,1.3597,1.3718,1.3871,1.3974,1.3992,1.4116,1.4202,1.4331,1.4443,1.4558,1.4721,1.4857,1.4968,1.5108,1.5181,1.5199,1.5215,1.5211,1.5228,1.5115,1.508,1.5197,1.5197,1.5197,1.5197,1.5197,1.5197,1.3609,1.3761,1.3812,1.401,1.409,1.4235,1.4303,1.4397,1.4486,1.4665,1.4777,1.4847,1.4958,1.5106,1.5231,1.526,1.5309,1.5322,1.5354,1.5247,1.5236,1.5225,1.5192,1.5332,1.5332,1.5456,1.5457,1.5458]}]]